Погода в Теджене

Погода в Теджене : погода сейчас, прогноз погоды и архив. Всё, что Вы хотите узнать о погоде в Теджене!

Хотите узнать прогноз погоды в Теджене? Тогда Вам сюда: Погода в Теджене

Поиск расширенной информации на нашем сайте:

Другие новости

Новости СМИ2

Главная страница сайта

Новости сайта

03.07.2017

Напоминаем, что на нашем специализированном сайте Метеоцентр.Азия вы можете получить высокодетализированные автоматические прогнозы погоды по пунктам России, СНГ и мира в авиационном формате (включающие направление и скорость ветра, видимость, явления погоды, количество и форму облачности, нижнюю и верхнюю границу облачности).

Рекомендуем: http://www.woomen.biz/ запорожский женский форум.

Погода в Теджене - сегодня

Время (UTC), дата Ветер
(°,м/с) 
Видим.   Явления Облачность Т
(°С)
Тd
(°С)
f(%) Тe
(°С)
Pmin
(гПа)
dP
(гПа)
Po
(мм)
O2
(г/м3)
Тmin Tmax R s Состояние
почвы
21 23.05.18 040 (СВ) 10 км    ясно 
+22.1 +5.5 34 +22  1016.2  0.2  746  277           
00 24.05.18 040 (СВ) 10 км    ясно 
+17.1 +9.7 62 +19  1016.6  746  281           
03 24.05.18 220 (ЮЗ) 10 км    ясно 
+22.3 +8.4 41 +22  1016.2  746  276           
06 24.05.18 340 (С) 10 км    ясно 
+27 +4 23 +27  1016.4  0.5  746  273  +16.8         
09 24.05.18 020 (С) 10 км    ясно 
+33.1 +5.5 18 +33  1014.5  -1.5  745  267           
12 24.05.18 020 (С) 10 км    ясно 
+34.1 +7.1 19 +34  1012.7  -1.6  744  265           
15 24.05.18 020 (С) 10 км    ясно 
+30 +8 25 +30  1012.5  -0.5  744  269    +34.1       
18 24.05.18 тихо ()   10 км    ясно 
+23.9 +10.2 42 +25  1013  0.1  744  274    +34.1       
21 24.05.18 040 (СВ) 10 км    ясно 
+20.2 +5.9 39 +20  1012.6  -0.7  743  278           
00 25.05.18 260 (З) 10 км    ясно 
+17.6 +5.9 46 +19  1012.8  743  280           
03 25.05.18 060 (СВ) 10 км    ясно 
+22.2 +3.6 30 +22  1012.2  -0.3  751  279           
06 25.05.18 360 (С) 10 км    ясно 
+28.6 +4.1 21 +29  1011.4  -0.3  743  270  +15.4         
09 25.05.18 300 (СЗ) 10 км    ясно 
+33 +2.7 15 +33  1010.1  -0.9  742  266           
12 25.05.18 360 (С) 10 км    ясно 
+34.1 -3 9 +34  1008.8  -1.3  741  266           
15 25.05.18 310 (СЗ) 10 км    ясно 
+31.2 +8.1 24 +31  1008.6  -0.3  741  267    +34.2       
18 25.05.18 тихо ()   10 км    ясно 
+22.5 +9.5 44 +23  1010  0.8  741  274    +34.2       
21 25.05.18 250 (З) 10 км    ясно 
+20.3 +8.9 48 +20  1009.3  -0.9  741  276           
00 26.05.18 тихо ()   10 км    ясно 
+16.2 +8.8 61 +16  1009  -0.7  740  280           
03 26.05.18 170 (Ю) 10 км    ясно 
+22.1 +9.5 45 +23  1008.5  740  274           
06 26.05.18 160 (Ю) 10 км    ясно 
+33.1 +2.5 14 +33  1007.9  0.2  740  266  +15.8         
09 26.05.18 040 (СВ) 10 км    3/0 верхняя 
[Ci fib]
+37.2 +4.3 13 +37  1006.6  -1  740  262           
12 26.05.18 тихо ()   10 км    1/0 верхняя 
[Ci fib]
+37.6 +4.8 13 +38  1004.9  -1.6  738  261           
15 26.05.18 350 (С) 10 км    ясно 
+33.8 +14.8 32 +43  1004.5  -0.6  738  262    +38       
18 26.05.18 200 (Ю) 10 км    3/3 1000 м 
[Cu hum]
+28.4 +7.7 27 +28  1006.9  740  269    +38       
21 26.05.18 260 (З) 10 км    ясно 
+24.8 +6.5 31 +25  1007  -0.2  739  272           
Время (UTC), дата Ветер
(°,м/с) 
Видим.   Явления Облачность Т
(°С)
Тd
(°С)
f(%) Тe
(°С)
Pmin
(гПа)
dP
(гПа)
Po
(мм)
O2
(г/м3)
Тmin Tmax R s Состояние
почвы

Для получения пояснительной информации подведите курсор к названию столбца.

ПОГОДА в Теджене - архив

Всё, что Вы хотите узнать о погоде в Теджене - удобно и подробно!

Выберите нужную дату (начиная с 1 января 2015* года) и нажмите кнопку "Найти".
Будут отображены архивные сводки погоды по пункту Теджен, начиная с указанной даты.


Отображать данные в формате CSV (для использования в таблицах Excel)


Внимание! Наш архив погоды предназначен исключительно для личного некоммерческого использования в познавательных целях. Если Вам необходимы официальные справки о состоянии погоды (для производственных, юридических, коммерческих и т.п. целей), обращайтесь в органы Росгидромета.

*Примечание: данная дата относится к архиву по метеостанциям СССР (Россия, СНГ, Балтия).
Архив по метеостанциям Зарубежной Европы и Азии (кроме Китая) хранится 10 дней, по другим регионам земного шара (Китай, Африка, Америка, Австралия, Океания) - 1 день.

Теджен - район местоположения метеостанции


Название, широта, долгота, высота метеостанции:
Теджен 37.4°ш. 60.5°д. 186 м над ур. моря [Туркменистан]

Дополнительная информация

В oтличие oт бoльшинства пoгoдных сайтoв мы публикуем пoдрoбную метеoинфoрмацию в детальнoм прoфессиoнальнoм фoрмате.

Характеристики температуры и влажнoсти вoздуха измеряются на высoте 2 м в тени вдали oт зданий и деревьев.
Скoрoсть ветра измеряется на высoте 10 м (на урoвне рoста челoвека скoрoсть ветра ниже в 1.5-2 раза). Если метеoстанция нахoдится в гoрoде или в лесу, тo скoрoсть ветра занижена на 2-4 м/с пo сравнению с oткрытым местoм. Скoрoсть ветра над акватoриями крупных рек и oзёр, а также на вершинах хoлмoв на 2-5 м/с выше, чем в oбычных услoвиях.
Атмoсфернoе давление в разных тoчках местнoсти мoжет значительнo oтличаться oт давления на метеoстанции, в зависимoсти oт услoвий рельефа (при пoдъёме на 10 м давление пoнижается примернo на 1 мм рт.ст.).